"2010-03-21 00:00:00",1780119,5.041,208.8,7.549,1.293,1.734,100,-0.7,0.603,36.31,0,109.8,13.48,0.05,170.8
"2010-03-21 00:00:30",1780120,3.744,205.9,4.728,0.786,-0.624,100,-0.7,0.397,35.86,0,109.8,13.48,0.05,167.9
"2010-03-21 00:01:00",1780121,4.848,206.7,6.598,1.132,1.293,100,-0.7,0.496,35.53,0,109.8,13.48,0.05,168.7
"2010-03-21 00:01:30",1780122,4.634,219,7.886,1.179,1.985,100,-0.7,0.598,35.44,0,109.8,13.48,0.05,181.0
"2010-03-21 00:02:00",1780123,5.178,218,7.368,1.159,2.516,100,-0.7,0.564,35.42,0,109.8,13.48,0.05,180.0
"2010-03-21 00:02:30",1780124,4.94,214.4,4.721,1.108,2.548,100,-0.7,0.579,35.38,0,109.8,13.48,0.05,176.4
"2010-03-21 00:03:00",1780125,4.697,220.3,5.641,1.078,2.262,100,-0.7,0.565,35.4,0,109.8,13.48,0.05,182.3
"2010-03-21 00:03:30",1780126,4.71,218,6.675,1.334,1.232,100,-0.7,0.421,35.25,0,109.8,13.48,0.05,180.0
"2010-03-21 00:04:00",1780127,4.792,218,6.148,1.158,1.826,100.0003,-0.699,0.593,35.29,0,109.8,13.49,0.05,180.0
"2010-03-21 00:04:30",1780128,4.791,218.5,7.078,1.212,1.927,100,-0.7,0.544,35.13,0,109.8,13.49,0.05,180.5
"2010-03-21 00:05:00",1780129,4.574,216.9,6.438,1.191,1.124,100.0017,-0.695,0.531,35.06,0,109.8,13.49,0.05,178.9
"2010-03-21 00:05:30",1780130,5.366,217.9,5.732,1.119,2.792,100.0008,-0.697,0.584,35.2,0,109.7,13.49,0.05,179.9
"2010-03-21 00:06:00",1780131,4.099,208.5,6.862,1.225,0.778,100.0014,-0.696,0.526,35.35,0,109.8,13.49,0.05,170.5
"2010-03-21 00:06:30",1780132,5.054,216.7,6.155,1.116,2.418,100.0023,-0.694,0.636,35.61,0,109.7,13.49,0.06,178.7
"2010-03-21 00:07:00",1780133,4.769,208.8,6.684,1.22,2.014,100.0014,-0.696,0.555,35.53,0,109.7,13.49,0.05,170.8
"2010-03-21 00:07:30",1780134,3.871,201.5,5.483,1.178,0.448,100.0045,-0.688,0.527,35.63,0,109.7,13.5,0.06,163.5
"2010-03-21 00:08:00",1780135,3.363,195.7,7.429,1.001,0.087,100.0056,-0.685,0.459,35.78,0,109.7,13.5,0.06,157.7
"2010-03-21 00:08:30",1780136,4.816,202.7,6.93,1.005,2.469,100.0048,-0.687,0.548,36,0,109.7,13.5,0.06,164.7
"2010-03-21 00:09:00",1780137,4.344,200.7,7.856,1.274,1.305,100.0023,-0.694,0.491,35.9,0,109.7,13.5,0.06,162.7
"2010-03-21 00:09:30",1780138,4.755,197.7,5.982,1.208,2.698,100.0017,-0.695,0.625,36.04,0,109.7,13.5,0.05,159.7
"2010-03-21 00:10:00",1780139,5.089,199.9,5.191,1.168,2.214,100.0037,-0.69,0.555,35.92,0,109.7,13.5,0.06,161.9
"2010-03-21 00:10:30",1780140,3.756,205.2,6.547,1.233,0.381,100.0025,-0.693,0.456,35.78,0,109.7,13.5,0.06,167.2
"2010-03-21 00:11:00",1780141,3.219,202.1,4.736,0.997,-0.828,99.99972,-0.7,0.405,35.73,0,109.7,13.5,0.05,164.1
"2010-03-21 00:11:30",1780142,4.666,210.1,6.546,1.211,2.447,99.99858,-0.703,0.598,35.94,0,109.7,13.5,0.05,172.1
"2010-03-21 00:12:00",1780143,5.086,210.4,4.979,0.728,3.05,99.99802,-0.705,0.557,35.87,0,109.7,13.5,0.04,172.4
"2010-03-21 00:12:30",1780144,4.872,206,6.062,1.037,3.087,99.99632,-0.709,0.673,36.2,0,109.7,13.5,0.04,168.0
"2010-03-21 00:13:00",1780145,4.539,208.2,5.358,1.121,1.894,99.9983,-0.704,0.542,36.25,0,109.7,13.5,0.05,170.2
"2010-03-21 00:13:30",1780146,3.278,200.7,5.546,0.75,-0.543,100,-0.7,0.482,36.11,0,109.7,13.5,0.05,162.7
"2010-03-21 00:14:00",1780147,4.504,210.7,4.803,1.342,1.223,99.9983,-0.704,0.521,35.96,0,109.7,13.5,0.05,172.7
"2010-03-21 00:14:30",1780148,4.802,207.9,5.718,1.069,2.098,99.99377,-0.715,0.546,35.95,0,109.8,13.5,0.03,169.9
"2010-03-21 00:15:00",1780149,4.505,214.3,7.482,1.051,2.525,99.98898,-0.728,0.606,36.01,0,109.7,13.5,0.02,176.3
"2010-03-21 00:15:30",1780150,5.128,218.6,4.107,0.667,3.637,99.98953,-0.726,0.64,36.03,0,109.7,13.5,0.02,180.6
"2010-03-21 00:16:00",1780151,4.217,211.4,7.026,1.162,1.164,99.9901,-0.725,0.529,35.95,0,109.7,13.5,0.02,173.4
"2010-03-21 00:16:30",1780152,3.048,212.5,4.176,0.487,-0.832,99.99095,-0.723,0.415,35.9,0,109.7,13.5,0.03,174.5
"2010-03-21 00:17:00",1780153,4.199,216.5,5.446,1.292,0.835,99.99236,-0.719,0.493,36.04,0,109.7,13.5,0.03,178.5
"2010-03-21 00:17:30",1780154,4.852,219.2,6.035,1.136,2.424,99.9918,-0.72,0.57,36.09,0,109.7,13.5,0.03,181.2
"2010-03-21 00:18:00",1780155,5.326,220.6,4.672,0.672,3.58,99.9918,-0.72,0.612,36.07,0,109.7,13.5,0.03,182.6
"2010-03-21 00:18:30",1780156,5.191,224.8,5.453,0.766,3.566,99.99151,-0.721,0.641,36.05,0,109.7,13.5,0.03,186.8
"2010-03-21 00:19:00",1780157,4.651,217.9,6.671,1.111,2.129,99.99462,-0.713,0.462,36.04,0,109.7,13.5,0.04,179.9
"2010-03-21 00:19:30",1780158,3.689,213.7,4.781,1.031,-0.343,99.99943,-0.701,0.326,36.03,0,109.7,13.5,0.05,175.7
"2010-03-21 00:20:00",1780159,3.116,215.8,5.187,0.786,0.195,99.99773,-0.705,0.504,36,0,109.7,13.5,0.04,177.8
"2010-03-21 00:20:30",1780160,4.205,213.5,7.265,1.044,2.202,99.99773,-0.705,0.47,35.85,0,109.7,13.5,0.04,175.5
"2010-03-21 00:21:00",1780161,4.503,216.1,6.16,0.869,3.008,99.99745,-0.706,0.557,36.52,0,109.7,13.51,0.04,178.1
"2010-03-21 00:21:30",1780162,4.46,217.3,6.698,0.964,3.011,99.99802,-0.705,0.605,37.46,0,109.7,13.51,0.04,179.3
"2010-03-21 00:22:00",1780163,3.822,215.9,5,1.166,1.077,99.9966,-0.708,0.419,37.33,0,109.7,13.51,0.04,177.9
"2010-03-21 00:22:30",1780164,2.558,197,5.558,0.157,-1.2,99.99377,-0.715,0.343,37.1,0,109.7,13.54,0.03,159.0
"2010-03-21 00:23:00",1780165,3.73,206,6.972,1.271,0.892,99.98925,-0.727,0.488,37.97,0,109.7,13.51,0.02,168.0
"2010-03-21 00:23:30",1780166,3.024,200.7,6.347,0.97,0.112,99.98388,-0.741,0.457,38.06,0,109.7,13.51,0.01,162.7
"2010-03-21 00:24:00",1780167,4.792,216.9,4.971,0.864,3.419,99.98161,-0.746,0.6,38.13,0,109.7,13.51,0.00,178.9
"2010-03-21 00:24:30",1780168,4.904,225.1,5.863,0.888,3.349,99.97285,-0.769,0.596,37.92,0,109.7,13.51,-0.02,187.1
"2010-03-21 00:25:00",1780169,4.863,216.9,5.324,1.135,2.637,99.96691,-0.784,0.556,37.04,0,109.7,13.51,-0.03,178.9
"2010-03-21 00:25:30",1780170,4.163,213.1,7.599,1.249,0.298,99.96606,-0.786,0.368,36.16,0,109.7,13.51,-0.04,175.1
"2010-03-21 00:26:00",1780171,4.19,213.2,7.183,1.139,1.118,99.96606,-0.786,0.446,36.07,0,109.7,13.51,-0.04,175.2
"2010-03-21 00:26:30",1780172,3.289,210.3,3.789,0.992,-0.456,99.96521,-0.788,0.285,35.85,0,109.7,13.51,-0.04,172.3
"2010-03-21 00:27:00",1780173,4.353,211.4,5.764,1.136,2.442,99.95984,-0.802,0.494,36.16,0,109.7,13.51,-0.05,173.4
"2010-03-21 00:27:30",1780174,4.84,209.9,5.728,0.955,3.444,99.95306,-0.819,0.531,37.1,0,109.7,13.51,-0.07,171.9
"2010-03-21 00:28:00",1780175,4.687,215.9,5.826,1.233,2.262,99.94457,-0.841,0.437,37.32,0,109.7,13.51,-0.09,177.9
"2010-03-21 00:28:30",1780176,4.952,212.5,7.189,1.22,1.823,99.94485,-0.84,0.449,36.94,0,109.7,13.51,-0.09,174.5
"2010-03-21 00:29:00",1780177,3.634,207.7,5.731,0.77,-0.003,99.93383,-0.868,0.377,36.75,0,109.7,13.51,-0.12,169.7
"2010-03-21 00:29:30",1780178,4.427,211.2,5.52,1.172,0.711,99.93213,-0.873,0.318,36.61,0,109.7,13.51,-0.12,173.2
"2010-03-21 00:30:00",1780179,4.769,213,5.039,1.198,2.167,99.93213,-0.873,0.485,36.76,0,109.7,13.51,-0.12,175.0
"2010-03-21 00:30:30",1780180,5.373,215.8,5.432,0.841,3.621,99.93128,-0.875,0.471,36.9,0,109.7,13.51,-0.13,177.8
"2010-03-21 00:31:00",1780181,4.59,209.8,5.457,1.219,2.548,99.92081,-0.901,0.399,36.93,0,109.7,13.51,-0.15,171.8
"2010-03-21 00:31:30",1780182,5.041,212.5,4.688,0.946,3.36,99.90979,-0.93,0.459,36.95,0,109.7,13.51,-0.18,174.5
"2010-03-21 00:32:00",1780183,4.505,205.9,6.194,1.221,1.129,99.89877,-0.958,0.252,36.81,0,109.7,13.51,-0.21,167.9
"2010-03-21 00:32:30",1780184,4.604,205,8.63,1.209,0.751,99.90017,-0.954,0.233,36.98,0,109.7,13.51,-0.21,167.0
"2010-03-21 00:33:00",1780185,5.176,212.6,7.99,1.068,2.502,99.90328,-0.946,0.46,37.4,0,109.7,13.51,-0.20,174.6
"2010-03-21 00:33:30",1780186,5.065,216.5,5.361,1.118,2.869,99.90102,-0.952,0.403,37.19,0,109.7,13.51,-0.20,178.5
"2010-03-21 00:34:00",1780187,4.762,211.7,6.253,1.222,2.618,99.89169,-0.976,0.391,37.08,0,109.7,13.51,-0.23,173.7
"2010-03-21 00:34:30",1780188,4.513,208.2,8.08,1.211,2.145,99.88207,-1,0.335,37,0,109.7,13.51,-0.25,170.2
"2010-03-21 00:35:00",1780189,4.543,206.6,6.087,1.2,1.736,99.87641,-1.015,0.316,36.97,0,109.7,13.51,-0.27,168.6
"2010-03-21 00:35:30",1780190,4.679,205.8,6.137,1.332,1.572,99.87669,-1.014,0.283,37.13,0,109.7,13.51,-0.27,167.8
"2010-03-21 00:36:00",1780191,5.059,212.4,6.354,1.095,2.57,99.8798,-1.006,0.283,37.23,0,109.7,13.51,-0.26,174.4
"2010-03-21 00:36:30",1780192,4.959,216,7.896,1.224,2.741,99.86904,-1.033,0.259,37.24,0,109.7,13.52,-0.29,178.0
"2010-03-21 00:37:00",1780193,4.805,216.3,6.818,1.219,2.476,99.86084,-1.054,0.259,37.28,0,109.7,13.52,-0.31,178.3
"2010-03-21 00:37:30",1780194,5.153,214,5.188,0.974,3.297,99.8549,-1.069,0.291,37.57,0,109.7,13.52,-0.32,176.0
"2010-03-21 00:38:00",1780195,4.906,210.3,6.211,1.186,2.233,99.85659,-1.065,0.217,37.76,0,109.7,13.52,-0.32,172.3
"2010-03-21 00:38:30",1780196,4.989,209.5,5.656,1.197,1.782,99.85772,-1.062,0.157,37.9,0,109.7,13.52,-0.31,171.5
"2010-03-21 00:39:00",1780197,4.737,211.4,7.415,1.261,2.013,99.85121,-1.079,0.159,38.04,0,109.7,13.53,-0.33,173.4
"2010-03-21 00:39:30",1780198,5.172,215.8,6.528,1.074,3.01,99.83736,-1.114,0.16,37.52,0,109.7,13.53,-0.37,177.8
"2010-03-21 00:40:00",1780199,5.122,216.1,4.597,1.11,3.133,99.83084,-1.131,0.19,37.26,0,109.7,13.53,-0.38,178.1
"2010-03-21 00:40:30",1780200,5.263,221.5,3.059,0.769,3.934,99.82971,-1.134,0.254,36.95,0,109.7,13.53,-0.39,183.5
"2010-03-21 00:41:00",1780201,4.469,215.4,4.667,1.261,1.845,99.82999,-1.133,0.078,36.6,0,109.7,13.53,-0.38,177.4
"2010-03-21 00:41:30",1780202,4.496,215,6.497,1.183,1.966,99.82546,-1.144,0.17,36.91,0,109.7,13.53,-0.40,177.0
"2010-03-21 00:42:00",1780203,3.979,216.5,5.11,1.198,0.663,99.80906,-1.186,-0.028,36.54,0,109.7,13.53,-0.44,178.5
"2010-03-21 00:42:30",1780204,4.721,218.8,5.892,1.163,2.826,99.79717,-1.217,0.099,36.54,0,109.7,13.53,-0.47,180.8
"2010-03-21 00:43:00",1780205,5.063,217.6,5.834,1.088,3.11,99.79633,-1.219,0.093,36.62,0,109.7,13.53,-0.47,179.6
"2010-03-21 00:43:30",1780206,5.739,218.9,4.034,0.573,3.91,99.79633,-1.219,0.161,36.8,0,109.7,13.53,-0.47,180.9
"2010-03-21 00:44:00",1780207,5.253,218.3,6.581,1.081,2.543,99.79379,-1.225,0.007,36.51,0,109.7,13.53,-0.48,180.3
"2010-03-21 00:44:30",1780208,4.471,218.5,6.589,1.102,0.853,99.78304,-1.253,0.033,36.44,0,109.7,13.53,-0.51,180.5
"2010-03-21 00:45:00",1780209,4.754,222,6.006,1.162,1.953,99.77653,-1.269,-0.01,36.38,0,109.7,13.53,-0.52,184.0
"2010-03-21 00:45:30",1780210,5.419,222.9,5.553,1.138,3.024,99.76352,-1.302,0.038,36.42,0,109.7,13.53,-0.55,184.9
"2010-03-21 00:46:00",1780211,5.695,229.1,4.307,0.773,4.356,99.76238,-1.305,0.059,36.34,0,109.7,13.53,-0.56,191.1
"2010-03-21 00:46:30",1780212,5.378,229.6,5.315,0.944,3.436,99.75984,-1.312,0.029,36.34,0,109.7,13.54,-0.56,191.6
"2010-03-21 00:47:00",1780213,5.156,228.4,5.727,1.123,3.16,99.7488,-1.34,0.034,36.37,0,109.6,13.53,-0.59,190.4
"2010-03-21 00:47:30",1780214,3.934,220.7,5.394,1.023,0.681,99.73806,-1.367,-0.081,36.4,0,109.7,13.53,-0.62,182.7
"2010-03-21 00:48:00",1780215,5.095,222.6,5.227,1.036,2.424,99.72844,-1.392,-0.177,36.4,0,109.7,13.53,-0.64,184.6
"2010-03-21 00:48:30",1780216,5.188,216.8,7.214,1.132,2.131,99.72844,-1.392,-0.114,36.57,0,109.7,13.53,-0.64,178.8
"2010-03-21 00:49:00",1780217,5.595,221,4.385,0.884,4.112,99.72873,-1.391,-0.052,36.74,0,109.7,13.53,-0.64,183.0
"2010-03-21 00:49:30",1780218,5.396,221.8,5.86,1.034,3.137,99.72844,-1.392,-0.054,36.83,0,109.7,13.53,-0.64,183.8
"2010-03-21 00:50:00",1780219,5.201,223.9,5.049,1.119,3.346,99.71938,-1.415,-0.021,36.92,0,109.6,13.53,-0.67,185.9
"2010-03-21 00:50:30",1780220,4.976,221.5,6.79,1.115,2.05,99.70213,-1.459,-0.23,36.62,0,109.6,13.53,-0.71,183.5
"2010-03-21 00:51:00",1780221,4.842,220.9,5.359,1.152,2.086,99.70324,-1.456,-0.214,36.55,0,109.6,13.53,-0.71,182.9
"2010-03-21 00:51:30",1780222,4.373,220.7,6.087,1.133,1.399,99.70493,-1.452,-0.148,36.63,0,109.6,13.54,-0.70,182.7
"2010-03-21 00:52:00",1780223,5.203,223.5,6.026,1.124,3.209,99.70493,-1.452,-0.143,36.61,0,109.6,13.54,-0.70,185.5
"2010-03-21 00:52:30",1780224,5.277,225,5.482,1.017,3.362,99.69133,-1.486,-0.127,36.61,0,109.6,13.54,-0.74,187.0
"2010-03-21 00:53:00",1780225,5.548,228.8,3.131,0.636,4.322,99.6755,-1.527,-0.132,36.67,0,109.6,13.54,-0.78,190.8
"2010-03-21 00:53:30",1780226,5.129,226.5,5.894,1.074,2.961,99.68086,-1.513,-0.205,36.67,0,109.6,13.54,-0.77,188.5
"2010-03-21 00:54:00",1780227,4.019,221.3,5.823,1.045,0.688,99.68029,-1.515,-0.305,36.63,0,109.6,13.54,-0.77,183.3
"2010-03-21 00:54:30",1780228,4.692,226.1,6.785,1.205,2.319,99.68113,-1.512,-0.171,36.83,0,109.6,13.54,-0.77,188.1
"2010-03-21 00:55:00",1780229,5.177,229.2,6.112,1.127,2.944,99.67235,-1.535,-0.22,36.85,0,109.5,13.55,-0.79,191.2
"2010-03-21 00:55:30",1780230,5.736,229.5,4.936,0.748,4.109,99.65395,-1.582,-0.208,36.87,0,109.6,13.55,-0.84,191.5
"2010-03-21 00:56:00",1780231,5.485,232.2,4.082,0.915,4.415,99.65311,-1.584,-0.161,36.88,0,109.6,13.55,-0.84,194.2
"2010-03-21 00:56:30",1780232,5.031,228.2,6.048,1.178,3.072,99.65423,-1.581,-0.263,36.91,0,109.6,13.55,-0.83,190.2
"2010-03-21 00:57:00",1780233,5.561,227.9,5.142,0.952,3.227,99.65224,-1.586,-0.417,36.83,0,109.6,13.55,-0.84,189.9
"2010-03-21 00:57:30",1780234,4.857,224.1,6.671,1.208,1.827,99.63979,-1.618,-0.342,36.98,0,109.6,13.55,-0.87,186.1
"2010-03-21 00:58:00",1780235,5.299,226.3,6.019,1.105,3.454,99.62592,-1.653,-0.301,37.14,0,109.6,13.56,-0.91,188.3
"2010-03-21 00:58:30",1780236,5.298,226.9,5.343,1.119,3.625,99.62648,-1.652,-0.291,37.23,0,109.6,13.56,-0.91,188.9
"2010-03-21 00:59:00",1780237,5.822,227.4,5.428,0.832,4.364,99.62648,-1.652,-0.286,37.23,0,109.6,13.56,-0.91,189.4
"2010-03-21 00:59:30",1780238,5.865,229.7,4.983,0.854,3.988,99.62535,-1.655,-0.311,37.17,0,109.6,13.56,-0.91,191.7
"2010-03-21 01:00:00",1780239,5.76,231.4,3.976,0.915,3.875,99.60356,-1.71,-0.333,37.12,0,109.6,13.56,-0.96,193.4
"2010-03-21 01:00:30",1780240,5.225,227.7,6.098,1.133,2.454,99.59253,-1.738,-0.386,37.06,0,109.6,13.56,-0.99,189.7
"2010-03-21 01:01:00",1780241,5.49,230.4,5.922,1.142,2.724,99.59253,-1.738,-0.512,37.03,0,109.6,13.56,-0.99,192.4
"2010-03-21 01:01:30",1780242,5.019,230.1,7.243,1.174,2.487,99.59253,-1.738,-0.45,37.15,0,109.5,13.56,-0.99,192.1
"2010-03-21 01:02:00",1780243,5.927,239.9,2.694,0.825,4.344,99.59111,-1.742,-0.346,37.3,0,109.6,13.56,-1.00,201.9
"2010-03-21 01:02:30",1780244,5.596,239.7,4.84,0.856,4.434,99.56649,-1.805,-0.367,37.39,0,109.6,13.56,-1.06,201.7
"2010-03-21 01:03:00",1780245,5.619,240.7,4.282,0.856,4.055,99.55857,-1.825,-0.417,37.31,0,109.6,13.56,-1.08,202.7
"2010-03-21 01:03:30",1780246,4.649,235.1,6.185,1.185,1.191,99.55885,-1.824,-0.637,37.07,0,109.6,13.56,-1.08,197.1
"2010-03-21 01:04:00",1780247,4.512,235.5,7.417,1.175,1.641,99.55913,-1.823,-0.524,37.29,0,109.6,13.56,-1.08,197.5
"2010-03-21 01:04:30",1780248,4.928,229.5,5.684,1.256,2.478,99.55799,-1.826,-0.525,37.41,0,109.6,13.56,-1.08,191.5
"2010-03-21 01:05:00",1780249,5.818,232.8,4.47,0.884,4.288,99.55062,-1.845,-0.49,37.54,0,109.6,13.56,-1.10,194.8
"2010-03-21 01:05:30",1780250,5.983,232.1,4.775,0.79,4.474,99.5486,-1.85,-0.475,37.58,0,109.5,13.56,-1.10,194.1
"2010-03-21 01:06:00",1780251,6.253,236.5,2.343,0.636,4.591,99.54462,-1.86,-0.476,37.6,0,109.5,13.56,-1.11,198.5
"2010-03-21 01:06:30",1780252,6.227,238.3,4.133,0.69,4.17,99.54884,-1.85,-0.483,37.58,0,109.5,13.56,-1.10,200.3
"2010-03-21 01:07:00",1780253,6.248,242.3,3.714,0.673,4.088,99.55109,-1.844,-0.48,37.63,0,109.5,13.56,-1.10,204.3
"2010-03-21 01:07:30",1780254,6.137,244.4,2.798,0.747,3.666,99.54288,-1.865,-0.502,37.6,0,109.5,13.56,-1.12,206.4
"2010-03-21 01:08:00",1780255,4.95,238.4,6.426,1.186,1.445,99.52901,-1.9,-0.674,37.45,0,109.5,13.56,-1.15,200.4
"2010-03-21 01:08:30",1780256,4.022,226.6,1.537,0.083,-0.802,99.52305,-1.915,-0.841,37.34,0,109.5,13.59,-1.17,188.6
"2010-03-21 01:09:00",1780257,5.319,232,5.856,1.23,2.049,99.52361,-1.914,-0.748,37.44,0,109.5,13.57,-1.17,194.0
"2010-03-21 01:09:30",1780258,6.313,236.9,3.885,0.64,4.726,99.52445,-1.912,-0.561,37.77,0,109.5,13.57,-1.17,198.9
"2010-03-21 01:10:00",1780259,6.284,235.5,3.874,0.556,5.206,99.52445,-1.912,-0.575,37.78,0,109.5,13.57,-1.17,197.5
"2010-03-21 01:10:30",1780260,6.308,236,3.271,0.639,4.85,99.51794,-1.928,-0.584,37.8,0,109.5,13.58,-1.18,198.0
"2010-03-21 01:11:00",1780261,6.317,235.6,3.473,0.656,4.353,99.50549,-1.96,-0.574,37.75,0,109.5,13.58,-1.21,197.6
"2010-03-21 01:11:30",1780262,6.292,235.1,3.335,0.653,4.14,99.49926,-1.976,-0.6,37.83,0,109.5,13.57,-1.23,197.1
"2010-03-21 01:12:00",1780263,6.391,235.9,4.047,0.622,4.043,99.49105,-1.997,-0.608,37.82,0,109.5,13.57,-1.25,197.9
"2010-03-21 01:12:30",1780264,6.365,236.9,3.806,0.73,3.932,99.49048,-1.998,-0.614,37.96,0,109.5,13.57,-1.25,198.9
"2010-03-21 01:13:00",1780265,6.462,237.6,3.163,0.712,3.839,99.49048,-1.998,-0.622,38.03,0,109.5,13.57,-1.25,199.6
"2010-03-21 01:13:30",1780266,6.407,239,3.926,0.655,3.638,99.49048,-1.998,-0.65,38.07,0,109.5,13.58,-1.25,201.0
"2010-03-21 01:14:00",1780267,6.458,240.5,3.646,0.617,3.414,99.4868,-2.008,-0.673,38.12,0,109.5,13.57,-1.26,202.5
"2010-03-21 01:14:30",1780268,4.848,234.4,4.555,1.105,0.326,99.4701,-2.05,-0.969,37.84,0,109.5,13.58,-1.31,196.4
"2010-03-21 01:15:00",1780269,4.778,235,5.673,1.122,0.453,99.45737,-2.083,-0.98,37.8,0,109.5,13.58,-1.34,197.0
"2010-03-21 01:15:30",1780270,5.56,241.8,5.777,1.106,3.592,99.45652,-2.085,-0.772,37.9,0,109.5,13.58,-1.34,203.8
"2010-03-21 01:16:00",1780271,6.004,243.6,3.457,0.631,4.669,99.45679,-2.084,-0.685,38.02,0,109.5,13.59,-1.34,205.6
"2010-03-21 01:16:30",1780272,6.134,240.8,3.736,0.623,4.679,99.45989,-2.076,-0.704,37.96,0,109.5,13.59,-1.33,202.8
"2010-03-21 01:17:00",1780273,6.22,240.8,3.051,0.841,4.334,99.4613,-2.073,-0.691,37.81,0,109.5,13.59,-1.33,202.8
"2010-03-21 01:17:30",1780274,5.799,240.9,5.203,1.028,3.357,99.46439,-2.065,-0.758,37.84,0,109.5,13.59,-1.32,202.9
"2010-03-21 01:18:00",1780275,4.488,235.8,5.118,1.015,1.075,99.46638,-2.06,-0.894,37.77,0,109.5,13.59,-1.31,197.8
"2010-03-21 01:18:30",1780276,5.307,242.5,6.081,1.193,2.315,99.46606,-2.06,-0.917,37.78,0,109.5,13.59,-1.32,204.5
"2010-03-21 01:19:00",1780277,5.134,241.3,6.225,1.167,3.364,99.4604,-2.075,-0.783,38.06,0,109.5,13.59,-1.33,203.3
"2010-03-21 01:19:30",1780278,6.016,244,4.988,0.812,4.449,99.46035,-2.075,-0.752,38.12,0,109.5,13.59,-1.33,206.0
"2010-03-21 01:20:00",1780279,5.897,244,5.052,0.929,4.443,99.45412,-2.091,-0.778,38.08,0,109.5,13.59,-1.35,206.0
"2010-03-21 01:20:30",1780280,5.905,243,4.473,0.907,4.208,99.44901,-2.104,-0.769,37.92,0,109.6,13.59,-1.36,205.0
"2010-03-21 01:21:00",1780281,5.826,244.2,4.726,1.032,4.211,99.4493,-2.103,-0.77,37.85,0,109.5,13.59,-1.36,206.2
"2010-03-21 01:21:30",1780282,5.351,241.3,6.165,1.15,2.716,99.4538,-2.092,-0.839,37.68,0,109.5,13.59,-1.35,203.3
"2010-03-21 01:22:00",1780283,4.735,236.2,5.792,1.096,1.541,99.45521,-2.088,-0.884,37.6,0,109.5,13.59,-1.34,198.2
"2010-03-21 01:22:30",1780284,5.52,239,6.185,1.224,2.223,99.45605,-2.086,-0.941,37.44,0,109.5,13.59,-1.34,201.0
"2010-03-21 01:23:00",1780285,5.856,242.3,5.574,1.093,3.065,99.45633,-2.085,-0.807,37.35,0,109.5,13.59,-1.34,204.3
"2010-03-21 01:23:30",1780286,6.528,244.9,3.191,0.486,4.672,99.45633,-2.085,-0.785,37.15,0,109.5,13.59,-1.34,206.9
"2010-03-21 01:24:00",1780287,6.447,243.9,4.244,0.759,4.866,99.45633,-2.085,-0.764,36.92,0,109.5,13.59,-1.34,205.9
"2010-03-21 01:24:30",1780288,6.612,242.8,4.371,0.528,4.551,99.45633,-2.085,-0.769,36.96,0,109.5,13.59,-1.34,204.8
"2010-03-21 01:25:00",1780289,5.684,239.4,5.953,1.214,2.502,99.45633,-2.085,-0.905,37.18,0,109.5,13.6,-1.34,201.4
"2010-03-21 01:25:30",1780290,5.199,239.1,6.099,1.175,2.129,99.45633,-2.085,-0.922,37.68,0,109.5,13.6,-1.34,201.1
"2010-03-21 01:26:00",1780291,5.036,238.3,5.805,1.126,1.391,99.45605,-2.086,-0.993,37.95,0,109.5,13.6,-1.34,200.3
"2010-03-21 01:26:30",1780292,6.103,244.6,4.783,0.983,4.169,99.45548,-2.087,-0.829,38.29,0,109.5,13.6,-1.34,206.6
"2010-03-21 01:27:00",1780293,6.333,244.5,4.749,0.886,4.345,99.45577,-2.087,-0.806,38.53,0,109.5,13.6,-1.34,206.5
"2010-03-21 01:27:30",1780294,6.536,246.3,3.676,0.765,4.869,99.45577,-2.087,-0.788,38.75,0,109.4,13.6,-1.34,208.3
"2010-03-21 01:28:00",1780295,6.571,246.7,3.222,0.633,4.943,99.45548,-2.087,-0.756,38.94,0,109.5,13.6,-1.34,208.7
"2010-03-21 01:28:30",1780296,6.474,246.6,3.706,0.647,4.579,99.45633,-2.085,-0.791,38.89,0,109.5,13.6,-1.34,208.6
"2010-03-21 01:29:00",1780297,5.459,240.1,6.181,1.202,2.475,99.45605,-2.086,-0.815,38.76,0,109.5,13.6,-1.34,202.1
"2010-03-21 01:29:30",1780298,4.869,236.2,4.693,1.026,0.575,99.45633,-2.085,-0.964,38.32,0,109.5,13.6,-1.34,198.2
"2010-03-21 01:30:00",1780299,5.864,241.5,5.078,1.123,2.882,99.45689,-2.084,-0.883,38.24,0,109.5,13.61,-1.34,203.5
"2010-03-21 01:30:30",1780300,6.176,242.8,4.892,0.911,4.316,99.45747,-2.082,-0.768,38.17,0,109.5,13.61,-1.34,204.8
"2010-03-21 01:31:00",1780301,6.322,243.1,2.906,0.724,4.866,99.46028,-2.075,-0.743,38.18,0,109.5,13.61,-1.33,205.1
"2010-03-21 01:31:30",1780302,6.162,240.6,2.065,0.818,4.681,99.4631,-2.068,-0.747,37.97,0,109.5,13.61,-1.32,202.6
"2010-03-21 01:32:00",1780303,5.879,238.9,4.387,1.021,3.778,99.46562,-2.062,-0.781,37.4,0,109.5,13.61,-1.32,200.9
"2010-03-21 01:32:30",1780304,5.743,239,6.433,1.147,2.79,99.46844,-2.054,-0.921,37.29,0,109.5,13.61,-1.31,201.0
"2010-03-21 01:33:00",1780305,5.17,234.7,6.322,1.168,1.83,99.46985,-2.051,-0.906,36.92,0,109.5,13.61,-1.31,196.7
"2010-03-21 01:33:30",1780306,5.627,238,5.907,1.199,3.395,99.47295,-2.043,-0.844,36.48,0,109.5,13.62,-1.30,200.0
"2010-03-21 01:34:00",1780307,6.007,242.1,4.823,1.026,4.551,99.47746,-2.031,-0.796,36.23,0,109.5,13.62,-1.29,204.1
"2010-03-21 01:34:30",1780308,6.185,243.7,4.266,0.964,4.609,99.47944,-2.026,-0.775,36.15,0,109.5,13.62,-1.28,205.7
"2010-03-21 01:35:00",1780309,6.49,246.9,3.205,0.527,5.033,99.48141,-2.021,-0.739,36.36,0,109.5,13.62,-1.28,208.9
"2010-03-21 01:35:30",1780310,6.348,246,1.576,0.754,4.599,99.48196,-2.02,-0.722,36.48,0,109.5,13.62,-1.28,208.0
"2010-03-21 01:36:00",1780311,6.489,245.5,3.407,0.621,4.084,99.48196,-2.02,-0.733,36.21,0,109.5,13.61,-1.28,207.5
"2010-03-21 01:36:30",1780312,6.411,246.5,3.188,0.746,3.737,99.48394,-2.015,-0.726,36.01,0,109.5,13.61,-1.27,208.5
"2010-03-21 01:37:00",1780313,6.219,248,4.943,0.992,3.094,99.48788,-2.005,-0.793,36.59,0,109.5,13.61,-1.26,210.0
"2010-03-21 01:37:30",1780314,4.348,237.9,0.663,0.041,-0.386,99.48958,-2.001,-1.008,37.01,0,109.5,13.64,-1.26,199.9
"2010-03-21 01:38:00",1780315,5.437,244.6,6.282,1.237,2.364,99.48873,-2.003,-0.821,37.33,0,109.5,13.61,-1.26,206.6
"2010-03-21 01:38:30",1780316,6.559,247.5,3.798,0.655,5,99.48901,-2.002,-0.714,37.7,0,109.5,13.61,-1.26,209.5
"2010-03-21 01:39:00",1780317,6.63,249.1,3.196,0.483,5.114,99.48986,-2,-0.703,37.83,0,109.5,13.62,-1.25,211.1
"2010-03-21 01:39:30",1780318,6.419,247.7,3.73,0.661,4.981,99.48986,-2,-0.699,37.95,0,109.5,13.61,-1.25,209.7
"2010-03-21 01:40:00",1780319,6.271,247.5,2.863,0.743,4.623,99.49014,-1.999,-0.684,37.85,0,109.5,13.61,-1.25,209.5
"2010-03-21 01:40:30",1780320,5.934,245.6,5.595,0.995,3.738,99.49014,-1.999,-0.757,37.78,0,109.4,13.61,-1.25,207.6
"2010-03-21 01:41:00",1780321,5.158,242.5,5.76,1.15,1.482,99.49014,-1.999,-0.915,37.46,0,109.4,13.62,-1.25,204.5
"2010-03-21 01:41:30",1780322,4.914,241.9,5.812,1.121,1.828,99.49014,-1.999,-0.826,37.44,0,109.4,13.62,-1.25,203.9
"2010-03-21 01:42:00",1780323,5.671,245.1,6.175,1.096,2.869,99.49014,-1.999,-0.814,37.37,0,109.4,13.62,-1.25,207.1
"2010-03-21 01:42:30",1780324,5.822,247.9,5.186,1.085,4.002,99.49014,-1.999,-0.687,37.47,0,109.4,13.62,-1.25,209.9
"2010-03-21 01:43:00",1780325,6.316,249.7,3.385,0.658,4.756,99.49014,-1.999,-0.675,37.91,0,109.4,13.63,-1.25,211.7
"2010-03-21 01:43:30",1780326,5.828,244.8,5.715,1.099,3.478,99.49014,-1.999,-0.811,38,0,109.4,13.63,-1.25,206.8
"2010-03-21 01:44:00",1780327,6.159,246.5,4.586,0.92,4.237,99.49014,-1.999,-0.684,38.18,0,109.4,13.62,-1.25,208.5
"2010-03-21 01:44:30",1780328,4.991,240.1,5.775,1.082,1.789,99.49014,-1.999,-0.888,38.12,0,109.4,13.63,-1.25,202.1
"2010-03-21 01:45:00",1780329,5.674,244,5.919,1.19,3.118,99.49014,-1.999,-0.756,38.15,0,109.4,13.63,-1.25,206.0
"2010-03-21 01:45:30",1780330,5.545,243.6,6.115,1.217,2.929,99.49014,-1.999,-0.751,38.04,0,109.4,13.63,-1.25,205.6